Weather observations for the past three days for
Hammond, Hammond Municipal Airport
Imperial (Metric)
Date Time (cdt) Wind (mph) Vis. (mi.) Weather Sky Cond. Temperature (ºF) Relative Humidity Wind Chill (°F) Heat Index (°F) Pressure Precipitation (in)
Air Dwpt 6 hour altimeter (in) sea level (mb) 1 hr 3 hr 6 hr
Max. Min.
17 05:35 Calm 10.00 Fair CLR 74.3 74.3 100% 30.02 0.0
17 05:15 Calm 10.00 Fair CLR 75.4 74.8 98% 73 30.01 0.0
17 04:55 Calm 10.00 Fair CLR 75.2 74.8 99% 73 30 0.0
17 04:35 Calm 10.00 Fair CLR 75.4 74.8 98% 73 29.99 0.0
17 04:15 Calm 10.00 Fair CLR 75.4 74.8 98% 73 30 0.0
17 03:35 Calm 10.00 Fair CLR 76.3 75.6 98% 76 29.99 0.0
17 03:15 Calm 10.00 Fair CLR 76.1 74.8 96% 76 30 0.0
17 02:55 Calm 10.00 Fair CLR 77.9 75.6 93% 80 30 0.0
17 02:35 Calm 10.00 Fair CLR 77.7 76.1 95% 80 30 0.0
17 02:15 Calm 10.00 Fair CLR 76.8 75.7 96% 77 30 0.0
17 01:55 Calm 10.00 Fair CLR 76.5 75.9 98% 76 30 0.0
17 01:35 Calm 10.00 Fair CLR 76.5 75.6 97% 76 30 0.0
17 01:15 Calm 10.00 Fair CLR 76.6 75.4 96% 77 30 0.0
17 00:55 Calm 10.00 Fair CLR 77.9 75.4 89.8 77.9 92% 80 30 0.0
17 00:35 Calm 10.00 Fair CLR 79.2 75.6 89% 83 29.99 0.0
17 00:15 Calm 10.00 Fair CLR 79.2 75.6 89% 83 30 0.0
16 23:55 S 3 10.00 Fair CLR 78.8 76.1 91% 83 30 0.0
16 23:35 S 6 10.00 Fair CLR 79.2 75.7 89% 83 29.99 0.0
16 22:55 S 3 10.00 Fair CLR 80.1 76.1 88% 85 30 0.0
16 22:35 S 6 10.00 Fair CLR 79.7 75.7 88% 85 30 0.0
16 22:15 S 6 10.00 Fair CLR 80.6 75.7 85% 86 30 0.0
16 21:55 S 5 10.00 Fair CLR 80.8 76.1 86% 87 30 0.0
16 21:35 S 6 10.00 Fair CLR 81.5 76.5 85% 89 30 0.0
16 21:15 S 5 10.00 Fair CLR 82.4 77.2 84% 91 30 0.0
16 20:55 S 6 10.00 Fair CLR 82.8 77.2 83% 92 30 0.0 0.01
16 20:35 SE 5 10.00 Fair CLR 83.3 77.4 82% 93 30 0.0 0.01
16 20:15 SE 6 10.00 Fair CLR 84.2 77 79% 94 29.99 0.0
16 19:35 S 7 10.00 Fair CLR 87.4 75.9 69% 98 29.98 0.0
16 19:15 S 8 10.00 Fair CLR 89.1 74.7 63% 99 29.98 0.0
16 18:55 S 9 10.00 Fair CLR 90.3 72.9 92.7 78.8 57% 99 29.97 0.0 0.01 0.02
16 18:35 S 9 10.00 Fair CLR 90.5 73.8 58% 100 29.97 0.0
16 18:15 S 12 10.00 Fair CLR 89.8 77 66% 103 29.97 0.0
16 17:55 S 6 10.00 Fair CLR 87.8 77 70% 100 29.99 0.0 0.01
16 17:35 S 6 10.00 Fair CLR 87.4 77.9 73% 101 29.99 0.0 0.01
16 17:15 S 8 10.00 Fair CLR 88.7 78.6 72% 103 29.98 0.0 0.01
16 16:55 S 6 10.00 Fair CLR 86.2 77.5 76% 98 29.99 0.0 0.01
16 16:35 E 6 10.00 Fair CLR 84.6 76.5 77% 94 30 0.0 0.01
16 16:15 E 7 10.00 Partly Cloudy SCT044 SCT075 82 77.7 87% 91 30 0.0 0.01
16 15:55 E 3 7.00 Light Rain SCT046 BKN060 BKN075 79.3 76.3 90% 84 29.99 0.0 0.02 0.02
16 15:35 E 5 10.00 Mostly Cloudy SCT039 SCT050 BKN075 82.8 72.7 72% 88 30.01 0.0
16 15:15 E 9 10.00 Partly Cloudy SCT039 84.9 74.5 71% 93 30.02 0.0
16 14:55 S 6 10.00 Thunderstorm in Vicinity CLR 90.3 75.9 63% 102 30.01 0.0
16 14:35 Calm 10.00 Fair CLR 90.9 75.4 61% 102 30.01 0.0
16 14:15 W 6 10.00 Thunderstorm CLR 92.5 76.3 59% 105 30.01 0.0
16 13:55 W 5 10.00 Fair CLR 90 75.9 63% 102 30.02 0.0
16 13:35 W 7 10.00 Fair CLR 90.3 76.3 63% 103 30.02 0.0
16 13:15 W 7 10.00 Fair CLR 90.7 74.5 59% 101 30.02 0.0
16 12:55 W 12 10.00 Partly Cloudy SCT045 SCT050 SCT060 92.3 74.1 93.6 75.7 55% 102 30.02 0.0
16 12:35 S 5 10.00 Partly Cloudy SCT047 SCT060 92.5 75.4 58% 104 30.03 0.0
16 12:15 Calm 10.00 Fair CLR 93 73.9 54% 103 30.03 0.0
16 11:55 W 7 10.00 Partly Cloudy SCT039 92.3 74.5 56% 103 30.04 0.0
16 11:35 W 6 10.00 Partly Cloudy SCT039 90.5 74.1 59% 100 30.04 0.0
16 11:15 W 7 10.00 Fair CLR 90.9 74.7 59% 101 30.03 0.0
16 10:55 W 7 10.00 Partly Cloudy SCT031 90.3 76.1 63% 102 30.04 0.0
16 10:35 W 8 10.00 Partly Cloudy SCT031 89.2 75.7 65% 100 30.04 0.0
16 10:15 W 6 10.00 Partly Cloudy SCT029 88.5 76.1 67% 100 30.04 0.0
16 09:55 SW 3 10.00 Partly Cloudy SCT027 87.6 76.3 69% 99 30.04 0.0
16 09:35 W 6 10.00 Fair CLR 87.8 76.8 70% 100 30.04 0.0
16 09:15 W 5 10.00 Fair CLR 86.4 77.5 75% 98 30.04 0.0
16 08:55 W 3 10.00 Fair CLR 85.8 78.6 79% 99 30.04 0.0
16 08:35 W 3 10.00 Fair CLR 84.6 78.1 81% 96 30.04 0.0
16 08:15 Calm 10.00 Fair CLR 82.6 77.7 85% 92 30.04 0.0
16 07:55 Calm 10.00 Fair CLR 80.6 77.5 90% 87 30.04 0.0
16 07:35 Calm 10.00 Fair CLR 79 77.2 94% 83 30.04 0.0
16 07:15 Calm 10.00 Fair CLR 77.2 76.5 98% 78 30.03 0.0
16 06:55 Calm 10.00 Fair CLR 75.4 75 78.1 74.3 99% 73 30.03 0.0
16 06:35 Calm 10.00 Fair CLR 75 74.3 98% 73 30.02 0.0
16 06:15 Calm 10.00 Fair CLR 75.4 74.8 98% 73 30.02 0.0
16 05:55 Calm 10.00 Fair CLR 75 74.8 99% 72 30.02 0.0
16 05:35 Calm 10.00 Fair CLR 74.8 74.3 98% 30.01 0.0
16 05:15 Calm 10.00 Fair CLR 75 74.7 99% 72 30.02 0.0
16 04:55 Calm 10.00 Fair CLR 75.2 74.8 99% 73 30.02 0.0
16 04:35 Calm 10.00 Fair CLR 74.3 73.8 98% 30.01 0.0
16 04:15 Calm 10.00 Fair CLR 75.6 75.2 99% 74 30.02 0.0
16 03:55 Calm 10.00 Fair CLR 75.2 74.7 98% 73 30.02 0.0
16 03:35 Calm 10.00 Fair CLR 75.7 75 98% 74 30.01 0.0
16 03:15 Calm 10.00 Fair CLR 75.2 74.5 98% 73 30.02 0.0
16 02:55 Calm 10.00 Fair CLR 75.4 74.5 97% 74 30.02 0.0
16 02:35 Calm 10.00 Fair CLR 76.1 75.2 97% 75 30.01 0.0
16 02:15 Calm 10.00 Fair CLR 75.7 74.8 97% 75 30.01 0.0
16 01:55 N 3 10.00 Fair CLR 75.6 74.5 96% 74 30.02 0.0
16 01:35 Calm 10.00 Fair CLR 77 75.2 94% 78 30.02 0.0
16 01:15 Calm 10.00 Fair CLR 78.1 75.6 92% 81 30.02 0.0
16 00:55 Calm 10.00 Fair CLR 77.9 75 86 77.9 91% 80 30.02 0.0
16 00:35 Calm 10.00 Fair CLR 79.5 75.2 87% 84 30.02 0.0
16 00:15 Calm 10.00 Fair CLR 79.7 75.2 86% 84 30.02 0.0
15 23:55 Calm 10.00 Fair CLR 78.8 75.2 89% 82 30.01 0.0
15 23:35 Calm 10.00 Fair CLR 80.1 75 85% 85 30.01 0.0
15 23:15 Calm 10.00 Fair CLR 79 75.4 89% 83 30.01 0.0
15 22:55 S 5 10.00 Fair CLR 79.9 75.6 87% 85 30 0.0
15 22:35 SW 5 10.00 Fair CLR 79.7 76.1 89% 85 30 0.0
15 22:15 S 3 10.00 Fair CLR 79.5 75.9 89% 84 30 0.0
15 21:55 Calm 10.00 Fair CLR 80.8 76.1 86% 87 30 0.0
15 21:35 Calm 10.00 Fair CLR 82 75.7 81% 89 29.99 0.0
15 21:15 Calm 10.00 Fair CLR 81 76.1 85% 87 29.99 0.0
15 20:55 Calm 10.00 Fair CLR 81.1 76.3 85% 88 29.99 0.0
15 20:35 Calm 10.00 Fair CLR 82.8 75.7 79% 91 29.99 0.0
15 20:15 SW 3 10.00 Fair CLR 83.8 75.7 77% 92 29.99 0.0
15 19:55 Calm 10.00 Fair CLR 84.4 76.1 76% 94 30 0.0
15 19:35 SW 6 10.00 Fair CLR 84.9 76.1 75% 94 30 0.0
15 19:15 S 7 10.00 Fair CLR 85.5 76.8 75% 96 30 0.0
15 18:55 S 7 10.00 Partly Cloudy SCT002 86.2 76.8 94.8 86.2 74% 97 30 0.0
15 18:35 SW 9 10.00 Partly Cloudy SCT002 87.4 76.8 71% 99 30 0.0
15 18:15 S 10 10.00 Fair CLR 87.8 77.5 72% 101 30 0.0
15 17:55 SW 9 10.00 Fair CLR 87.4 76.8 71% 99 30 0.0
15 17:35 SW 7 10.00 Fair CLR 86.9 75.9 70% 97 29.99 0.0
15 17:15 SW 8 10.00 Fair CLR 87.3 75.2 67% 97 29.98 0.0
15 16:55 SW 8 10.00 Fair CLR 87.8 75.7 68% 98 29.98 0.0
15 16:35 SW 8 10.00 Thunderstorm in Vicinity CLR 88 76.1 68% 99 29.99 0.0
15 16:15 S 10 10.00 Fair CLR 88.5 77.9 71% 102 30 0.0
15 15:55 S 12 10.00 Fair CLR 89.4 77.4 68% 103 30.01 0.0
15 15:35 S 12 10.00 Fair CLR 90.7 77 64% 104 30.02 0.0
15 15:15 S 8 10.00 Partly Cloudy SCT120 91.8 76.5 61% 105 30.02 0.0
15 14:55 S 12 10.00 Partly Cloudy SCT060 SCT080 SCT120 92.5 77.7 62% 108 30.04 0.0
15 14:35 S 6 10.00 Partly Cloudy SCT055 SCT080 91.6 74.7 58% 102 30.04 0.0
15 14:15 S 3 10.00 Partly Cloudy SCT060 93.7 74.3 53% 105 30.03 0.0
15 13:55 S 6 10.00 Mostly Cloudy SCT048 SCT060 BKN090 94.3 74.8 53% 106 30.04 0.0
15 13:35 Calm 10.00 Mostly Cloudy SCT048 BKN090 BKN110 93.6 73 51% 103 30.05 0.0
15 13:15 SE 3 10.00 Mostly Cloudy BKN048 91.6 72.5 54% 100 30.06 0.0
15 12:55 Calm 10.00 Partly Cloudy SCT050 93.4 72.9 93.9 74.3 51% 102 30.07 0.0
15 12:35 Calm 10.00 Mostly Cloudy BKN046 BKN055 91.8 72.9 54% 100 30.08 0.0
15 12:15 Calm 10.00 Partly Cloudy SCT044 SCT050 92.1 73.8 55% 102 30.09 0.0
15 11:55 Calm 10.00 Partly Cloudy SCT041 91.4 71.8 53% 99 30.09 0.0
15 11:35 NW 3 10.00 Partly Cloudy SCT038 91.6 75.4 59% 103 30.09 0.0
15 11:15 NW 5 10.00 Partly Cloudy SCT036 90 74.8 61% 100 30.1 0.0
15 10:55 NW 6 10.00 Partly Cloudy SCT034 89.2 74.1 61% 98 30.1 0.0
15 10:35 N 3 10.00 Fair CLR 88.9 74.3 62% 98 30.1 0.0
15 10:15 Calm 10.00 Fair CLR 88 75 66% 98 30.1 0.0
15 09:55 N 3 10.00 Fair CLR 87.1 75.7 69% 97 30.11 0.0
15 09:35 N 5 10.00 Fair CLR 86.2 76.3 72% 97 30.11 0.0
15 09:15 N 7 10.00 Fair CLR 85.1 76.1 75% 95 30.12 0.0
15 08:55 N 5 10.00 Fair CLR 84.2 77.4 80% 95 30.12 0.0
15 08:35 N 5 10.00 Fair CLR 82.6 77.7 85% 92 30.12 0.0
15 08:15 N 3 10.00 Fair CLR 80.8 77 88% 88 30.12 0.0
15 07:55 Calm 10.00 Fair CLR 78.8 76.3 92% 83 30.11 0.0
15 07:35 N 3 10.00 Fair CLR 77.2 76.1 96% 78 30.11 0.0
15 07:15 Calm 10.00 Fair CLR 75.6 75 98% 74 30.1 0.0
15 06:55 Calm 10.00 Fair CLR 73.9 73.6 78.4 73.8 99% 30.09 0.0
15 06:35 Calm 10.00 Fair CLR 73.9 73.4 98% 30.08 0.0
15 06:15 Calm 10.00 Fair CLR 74.7 73.9 98% 30.07 0.0
15 05:55 Calm 10.00 Fair CLR 74.3 73.6 98% 30.07 0.0
15 05:35 Calm 10.00 Fair CLR 74.1 73.4 98% 30.07 0.0
15 05:15 Calm 10.00 Fair CLR 75.2 73.9 96% 73 30.06 0.0
15 04:55 Calm 10.00 Fair CLR 75.6 74.3 96% 74 30.05 0.0
15 04:35 Calm 10.00 Fair CLR 75.4 74.3 96% 74 30.05 0.0
15 04:15 Calm 10.00 Fair CLR 75.2 74.3 97% 73 30.04 0.0
15 03:55 Calm 10.00 Fair CLR 75.2 74.3 97% 73 30.04 0.0
15 03:35 NW 3 10.00 Fair CLR 74.8 73.9 97% 30.04 0.0
15 03:15 NW 3 10.00 Fair CLR 75 73.8 96% 73 30.04 0.0
15 02:55 Calm 10.00 Fair CLR 74.8 73.6 96% 30.05 0.0
15 02:35 Calm 10.00 Fair CLR 75.7 74.3 95% 75 30.06 0.0
15 02:15 Calm 10.00 Fair CLR 75.7 74.3 95% 75 30.06 0.0
15 01:55 Calm 10.00 Fair CLR 76.6 74.3 93% 77 30.07 0.0
15 01:35 Calm 10.00 Fair CLR 76.3 74.3 94% 76 30.08 0.0
15 01:15 Calm 10.00 Fair CLR 77.5 74.3 90% 79 30.09 0.0
15 00:55 Calm 10.00 Fair CLR 78.4 74.3 89.4 78.4 87% 81 30.1 0.0
15 00:35 Calm 10.00 Fair CLR 78.4 74.3 87% 81 30.11 0.0
15 00:15 E 3 10.00 Fair CLR 79 75.2 88% 83 30.11 0.0
14 23:55 E 7 10.00 Partly Cloudy SCT055 79.9 75 85% 85 30.12 0.0
14 23:35 E 7 10.00 Mostly Cloudy BKN055 80.4 74.3 82% 85 30.11 0.0
14 23:15 Calm 10.00 Partly Cloudy SCT055 79.3 74.8 86% 83 30.1 0.0
14 22:55 Calm 10.00 Fair CLR 79.5 75 86% 84 30.1 0.0
14 22:35 Calm 10.00 Fair CLR 81.9 73.9 77% 88 30.1 0.0
14 22:15 Calm 10.00 Fair CLR 79.2 75.4 88% 83 30.08 0.0
14 21:55 Calm 10.00 Fair CLR 80.8 75.2 83% 87 30.08 0.0
14 21:35 Calm 10.00 Fair CLR 82.9 74.5 76% 90 30.07 0.0
14 21:15 Calm 10.00 Fair CLR 82.8 74.5 76% 90 30.08 0.0
14 20:55 Calm 10.00 Fair CLR 83.8 74.5 74% 91 30.08 0.0
14 20:35 NW 3 10.00 Fair CLR 84.7 73.9 70% 92 30.08 0.0
14 20:15 NW 6 10.00 Fair CLR 86.4 73.8 66% 94 30.07 0.0
14 19:35 W 10 10.00 Fair CLR 88.7 73.4 61% 97 30.06 0.0
14 19:15 W 12 10.00 Partly Cloudy SCT055 89.1 73 59% 97 30.05 0.0
14 18:55 W 14 G 18 10.00 Fair CLR 90 73.2 96.3 90 58% 98 30.05 0.0
14 18:35 W 7 10.00 Fair CLR 92.8 72.5 52% 101 30.04 0.0
14 18:15 W 7 10.00 Fair CLR 92.8 72.5 52% 101 30.04 0.0
14 17:55 W 7 10.00 Partly Cloudy SCT060 94.3 72 48% 103 30.04 0.0
14 17:35 W 6 10.00 Partly Cloudy SCT060 96.1 73.4 48% 106 30.05 0.0
14 17:15 W 5 10.00 Fair CLR 95.9 72.3 47% 105 30.04 0.0
14 16:55 NW 5 10.00 Partly Cloudy SCT055 95.7 73.2 48% 106 30.05 0.0
14 16:35 N 3 10.00 Mostly Cloudy SCT055 SCT070 BKN085 95.5 74.5 51% 107 30.06 0.0
14 16:15 Calm 10.00 Mostly Cloudy SCT055 SCT070 BKN085 92.5 72.9 53% 101 30.06 0.0
14 15:55 N 7 10.00 Partly Cloudy SCT055 SCT070 95.4 74.8 52% 107 30.07 0.0
14 15:35 N 6 10.00 Fair CLR 93.2 73.9 54% 103 30.07 0.0
14 15:15 NW 7 10.00 Mostly Cloudy SCT055 SCT065 BKN075 95.4 74.1 50% 106 30.08 0.0
14 14:55 Calm 10.00 Mostly Cloudy SCT055 SCT065 BKN075 92.5 73.6 54% 102 30.09 0.0
14 14:35 N 3 10.00 Partly Cloudy SCT049 SCT065 SCT075 95.4 74.5 51% 107 30.1 0.0
14 14:15 Calm 10.00 Mostly Cloudy SCT047 SCT055 BKN075 93.2 74.5 55% 104 30.1 0.0
14 13:55 N 5 10.00 Fair CLR 94.5 74.7 53% 106 30.11 0.0
14 13:35 Calm 10.00 Mostly Cloudy SCT045 BKN050 BKN070 91.6 73.8 56% 101 30.12 0.0
14 13:15 Calm 10.00 Mostly Cloudy SCT045 BKN050 BKN070 90.5 74.3 59% 100 30.13 0.0
14 12:55 Calm 10.00 Partly Cloudy SCT043 92.1 74.7 93 75.4 57% 103 30.13 0.0
14 12:35 NW 5 10.00 Mostly Cloudy SCT041 BKN046 92.5 75.7 58% 105 30.15 0.0
14 12:15 W 5 10.00 Mostly Cloudy BKN039 91.6 74.7 58% 102 30.16 0.0
14 11:55 NW 6 10.00 Partly Cloudy SCT036 90.9 75 60% 102 30.16 0.0
14 11:35 N 7 10.00 Partly Cloudy SCT036 90.1 75.2 62% 101 30.16 0.0
14 11:15 N 5 10.00 Fair CLR 89.2 74.1 61% 98 30.17 0.0
14 10:55 N 5 10.00 Fair CLR 88.7 74.3 63% 98 30.17 0.0
14 10:35 NW 7 10.00 Fair CLR 88 74.3 64% 97 30.17 0.0
14 10:15 N 6 10.00 Fair CLR 87.1 74.7 67% 96 30.17 0.0
14 09:55 N 5 10.00 Fair CLR 86.2 74.1 67% 94 30.17 0.0
14 09:35 N 5 10.00 Fair CLR 85.3 74.7 71% 94 30.17 0.0
14 09:15 Calm 10.00 Fair CLR 83.5 74.1 74% 90 30.17 0.0
14 08:55 N 3 10.00 Fair CLR 82.4 74.3 77% 89 30.17 0.0
14 08:35 Calm 10.00 Fair CLR 81.5 74.7 80% 88 30.17 0.0
14 08:15 Calm 10.00 Fair CLR 79.7 74.7 85% 84 30.17 0.0
14 07:55 Calm 10.00 Fair CLR 77.9 75.4 92% 80 30.17 0.0
14 07:35 Calm 10.00 Fair CLR 76.6 75.6 96% 77 30.16 0.0
14 07:15 N 3 7.00 Fair CLR 75.7 75.6 99% 74 30.16 0.0
14 06:55 Calm 3.00 Fog/Mist SCT003 75.2 75 77.9 74.7 99% 73 30.15 0.0
14 06:35 Calm 5.00 Fog/Mist SCT003 75.2 75.2 100% 73 30.15 0.0
14 06:15 Calm 5.00 Fog/Mist SCT003 75.2 75.2 100% 73 30.14 0.0
14 05:55 Calm 7.00 Fair CLR 74.8 74.7 99% 30.14 0.0
Date Time (cdt) Wind (mph) Vis. (mi.) Weather Sky Cond. Air Dwpt Max. Min. Relative Humidity Wind Chill (°F) Heat Index (°F) altimeter (in) sea level (mb) 1 hr 3 hr 6 hr
6 hour
Temperature (ºF) Pressure Precipitation (in)